TimePST,TemperatureF,Dew PointF,Humidity,Sea Level PressureIn,VisibilityMPH,Wind Direction,Wind SpeedMPH,Gust SpeedMPH,PrecipitationIn,Events,Conditions,WindDirDegrees,DateUTC
12:53 AM,57.9,32.0,37,30.08,10.0,NNW,3.5,-,N/A,,Clear,330,2014-03-05 08:53:00
1:53 AM,55.0,34.0,45,30.08,10.0,Calm,Calm,-,N/A,,Clear,0,2014-03-05 09:53:00
2:53 AM,52.0,34.0,50,30.08,10.0,NNW,4.6,-,N/A,,Clear,340,2014-03-05 10:53:00
3:53 AM,52.0,33.1,49,30.09,10.0,WNW,4.6,-,N/A,,Clear,290,2014-03-05 11:53:00
4:53 AM,51.1,33.1,50,30.11,10.0,Calm,Calm,-,N/A,,Clear,0,2014-03-05 12:53:00
5:53 AM,50.0,34.0,54,30.12,10.0,Calm,Calm,-,N/A,,Clear,0,2014-03-05 13:53:00
6:53 AM,50.0,35.1,57,30.15,10.0,NW,3.5,-,N/A,,Clear,320,2014-03-05 14:53:00
7:53 AM,54.0,35.1,49,30.19,10.0,Calm,Calm,-,N/A,,Clear,0,2014-03-05 15:53:00
8:53 AM,57.9,34.0,41,30.20,10.0,Calm,Calm,-,N/A,,Clear,0,2014-03-05 16:53:00
9:53 AM,59.0,33.1,38,30.19,10.0,SSE,3.5,-,N/A,,Clear,150,2014-03-05 17:53:00
10:53 AM,64.0,32.0,30,30.17,10.0,Calm,Calm,-,N/A,,Clear,0,2014-03-05 18:53:00
11:53 AM,66.0,30.0,26,30.15,10.0,Calm,Calm,-,N/A,,Clear,0,2014-03-05 19:53:00
12:53 PM,68.0,28.0,22,30.12,10.0,Variable,3.5,-,N/A,,Clear,0,2014-03-05 20:53:00
1:53 PM,69.1,25.0,19,30.09,10.0,Calm,Calm,-,N/A,,Clear,0,2014-03-05 21:53:00
2:53 PM,70.0,24.1,18,30.07,10.0,East,4.6,-,N/A,,Clear,90,2014-03-05 22:53:00
3:53 PM,70.0,26.1,19,30.06,10.0,Calm,Calm,-,N/A,,Clear,0,2014-03-05 23:53:00
4:53 PM,69.1,26.1,20,30.05,10.0,East,4.6,-,N/A,,Clear,90,2014-03-06 00:53:00
5:53 PM,66.9,28.0,23,30.06,10.0,East,3.5,-,N/A,,Clear,90,2014-03-06 01:53:00
6:53 PM,64.9,27.0,24,30.08,10.0,ESE,4.6,-,N/A,,Clear,120,2014-03-06 02:53:00
7:53 PM,64.0,28.0,26,30.09,10.0,Calm,Calm,-,N/A,,Clear,0,2014-03-06 03:53:00
8:53 PM,62.1,28.9,29,30.09,10.0,WSW,3.5,-,N/A,,Clear,250,2014-03-06 04:53:00
9:53 PM,60.1,30.0,32,30.09,10.0,Calm,Calm,-,N/A,,Clear,0,2014-03-06 05:53:00
10:53 PM,57.0,33.1,40,30.07,10.0,Calm,Calm,-,N/A,,Clear,0,2014-03-06 06:53:00
11:53 PM,54.0,33.1,45,30.06,10.0,NNW,3.5,-,N/A,,Clear,330,2014-03-06 07:53:00